STARLINK-31876, 59938

Orbit data source: Space-Track

STARLINK-31876, 59938 is a payload satellite owned by SpaceX/Seattle (US) in LEO that was launched on Sat, 01 Jun 2024 UTC via an FALCON 9 launch vehicle from the Air Force Eastern Test Range (AFETR). Payload-class satellites include a variety of spacecraft equipped with specific instruments for various scientific and technological missions. These include communications satellites like Starlink; space stations such as the ISS; scientific satellites like the Hubble; Earth observation satellites from companies like Planet Labs, Umbra, and HawkEye 360; GPS; miniature CubeSats for education and research; and military/defense satellites.

Loading next visibility...
Identifier
59938, 2024-106S
Orbit
LEO
Country
Flag of USUS
Related business
Manufacturer
SpaceX/Seattle
Mission
Operational Commercial Communications
Bus & Motor
STARLINK V2M, Unknown motor
Mass
730 kg wet, ~700 kg dry
Launch date (UTC)
2024-06-01 (2 years ago)
Launch vehicle
FALCON 9
Launch site
Air Force Eastern Test Range (AFETR)
Object type
Payload
Rocket body
Debris
Shape & HBR
Box + 2 Pan, 17.7 m
Radar Cross Section
33.884 m², Large (>1 m²)

Expand to show TLE details & history
Last TLE update: 5 hours ago

TLE from 5 hours ago
0 STARLINK-31876
1 59938U 24106S   26132.83268773 -.00021175  00000-0 -75909-3 0  9996
2 59938  42.9988 330.1930 0001948 245.2634 114.8015 15.27709329110347
Epoch: 2026-05-12T19:59Z
TLE epoch observation values (Epoch: 2026-05-12T19:59:04.219Z)
Latitude
-0.00004°
Longitude
159.82398°
Altitude
482.998 km
Speed
7.625 km/s
True Right ascension
22h 00m 46s
True Declination
0° 00' 00"
Sunlit
Object was in daylight at epoch
Visualization orbit readout
Latitude
Unknown
Longitude
Unknown
Altitude
Unknown
Speed
Unknown
Apparent Right ascension
Unknown
Apparent Declination
Unknown
Sunlit
N/A
Visualization observer readout
Local Sidereal Time
09:38:38
Azimuth
Unknown
Elevation
Unknown
Doppler factor
Unknown
Orbital elements
Apogee altitude
485.944 km
Perigee altitude
483.27 km
Semi-major axis
6,862.744 km
Eccentricity
0.00019
Inclination
42.9988°
RAAN
330.193°
Arg. of periapsis
245.2634°
True anomaly
114.82176°
Mean anomaly
114.8015°
Eccentric anomaly
114.81163°
Mean motion
3.81765 °/min
Orbital period
94.3 mins
BSTAR
-0.00075909
Loading maneuver chart data...
Computing Atmospheric mass density...
Loading historical data...
Loading historical data...
Loading historical data...
Loading historical data...
Loading historical data...
Loading historical data...
Loading historical data...

Documentation

Showing up to 5 results
|